Temperature
20 20 20 20 17 15 16 16 14 14 13 12 12 11 10 9 11 10 8 7 8 8 8 8 7 7 7 7 7 6 6 5 5 5 5 4 4 4 4 4 4 4 4 4 4 4 4 5 5
20 20 20 20 15 15 16 15 14 14 13 12 11 11 9 7 8 8 7 7 8 8 8 8 8 7 7 7 7 6 6 5 5 4 4 4 4 4 3 3 3 3 3 3 3 3 3 4 4
20 20 20 16 16 15 16 14 12 13 13 13 11 10 9 8 8 8 8 8 8 8 8 8 8 8 7 7 7 6 6 5 5 4 4 4 4 3 3 3 3 2 2 2 2 2 2 3 3
21 20 20 15 17 15 15 12 13 13 13 12 11 8 8 8 8 8 8 8 8 8 8 8 8 8 7 7 7 6 6 5 4 4 4 4 3 3 3 3 2 2 2 2 2 2 2 2 2
21 20 15 15 15 14 12 13 13 13 12 11 11 8 8 8 8 8 8 8 8 8 8 8 8 7 7 7 7 6 6 5 4 4 4 4 3 3 3 3 2 2 2 2 2 1 1 1 2
21 18 15 14 15 14 13 14 14 13 12 11 11 8 8 8 7 7 8 8 7 8 8 8 7 7 7 7 7 6 5 5 4 4 4 4 4 4 3 3 3 2 2 2 2 1 1 1 1
20 15 15 14 13 13 14 14 14 13 12 11 12 8 7 7 7 7 7 7 7 7 7 7 7 7 7 7 6 6 6 5 5 5 4 4 4 4 4 4 3 3 3 3 2 2 2 2 2
20 15 15 13 13 14 15 14 14 14 13 12 12 10 8 9 7 7 7 7 7 7 7 7 7 7 7 6 6 6 5 5 5 5 4 4 4 4 3 3 3 3 3 2 2 2 2 2 1
20 15 15 14 14 14 14 14 13 14 13 11 11 11 12 11 8 7 7 6 6 7 7 7 7 6 6 6 6 6 5 5 5 4 4 4 3 3 3 3 2 2 2 1 1 0 0 0 0
19 15 16 15 14 13 14 14 13 12 12 11 11 11 11 10 9 8 7 7 7 7 7 6 6 6 6 6 6 5 5 5 4 4 4 3 3 3 2 2 1 1 0 -0 -1 -1 -1 -2 -2
16 14 15 15 15 14 14 13 13 12 10 12 13 12 11 10 9 8 8 7 7 7 6 6 6 6 6 5 5 5 5 4 4 3 3 3 2 2 1 1 0 -0 -1 -1 -2 -2 -3 -3 -4
14 13 14 14 14 14 14 13 12 12 13 14 14 13 12 10 10 9 8 7 6 6 6 6 6 6 5 5 5 5 4 4 3 3 3 2 2 1 1 -0 -1 -1 -2 -3 -3 -4 -4 -4 -5
13 13 14 14 14 14 14 13 13 13 14 13 13 12 11 11 10 9 8 7 6 6 6 6 6 6 5 5 5 4 4 4 3 3 2 2 1 0 -0 -1 -2 -2 -3 -4 -4 -5 -5 -5 -5
13 13 13 13 14 14 13 12 12 14 14 13 13 12 12 11 10 9 8 7 6 6 6 6 6 5 5 5 5 4 4 3 3 2 1 1 0 -0 -1 -2 -2 -3 -4 -4 -5 -5 -6 -6 -6
13 12 12 13 13 13 13 12 11 14 13 12 12 12 11 11 10 9 9 8 7 7 6 6 6 5 5 5 4 4 3 3 2 2 1 0 -0 -1 -1 -2 -3 -3 -4 -5 -5 -6 -6 -6 -7
13 13 13 13 12 12 11 11 12 14 12 12 11 11 11 10 10 9 9 8 7 7 6 6 6 5 5 4 4 4 3 3 2 1 1 -0 -1 -1 -2 -2 -3 -4 -4 -5 -6 -6 -7 -7 -7
14 13 14 14 11 11 10 10 12 12 12 11 11 11 11 10 10 9 8 8 7 7 6 6 6 5 5 4 4 3 3 2 2 1 0 -0 -1 -2 -2 -2 -3 -4 -5 -5 -6 -7 -7 -8 -8
16 14 14 14 11 10 9 9 10 11 10 11 11 11 11 10 11 10 9 8 7 7 6 6 6 5 5 4 4 3 3 2 1 1 0 -0 -1 -2 -2 -3 -3 -4 -5 -6 -7 -7 -8 -8 -8
16 16 15 15 12 11 10 11 12 11 9 9 9 10 11 11 12 10 9 8 7 7 6 6 6 5 5 4 4 3 3 2 1 1 0 -0 -1 -2 -2 -3 -4 -5 -5 -6 -7 -8 -8 -9 -9
16 16 15 14 13 12 10 11 12 11 9 10 10 11 12 12 11 10 9 8 8 8 7 7 6 5 5 4 4 3 3 2 1 1 0 -1 -1 -2 -3 -3 -4 -5 -6 -7 -8 -9 -9 -9 -10
16 16 15 15 14 12 12 11 12 13 11 11 11 12 13 13 13 12 11 10 9 8 8 7 7 6 5 4 4 3 2 2 1 1 0 -1 -2 -2 -3 -4 -4 -5 -6 -7 -8 -9 -9 -10 -10
15 15 15 15 13 11 12 11 12 13 11 10 11 12 13 14 14 13 12 11 11 10 9 8 7 6 5 4 4 3 2 2 1 1 -0 -1 -2 -2 -3 -4 -5 -6 -7 -8 -8 -9 -10 -10 -10
15 15 14 14 13 11 11 11 12 12 12 12 12 14 16 16 15 14 14 13 12 11 10 9 7 6 5 4 3 3 2 2 1 0 -0 -1 -2 -3 -3 -4 -5 -6 -7 -8 -9 -9 -10 -10 -11
14 13 13 10 10 11 11 11 11 11 12 13 14 17 18 18 17 16 14 13 12 11 10 9 8 6 5 4 3 3 2 2 1 0 -0 -1 -2 -3 -4 -4 -5 -6 -7 -8 -9 -9 -10 -10 -11
13 12 12 13 11 11 12 12 13 13 12 13 16 19 20 19 18 17 15 14 13 12 11 10 8 7 5 4 3 3 2 2 1 0 -0 -1 -2 -2 -3 -4 -5 -6 -7 -8 -9 -9 -10 -10 -10
12 12 12 13 12 11 13 12 14 13 14 16 17 19 19 19 18 17 16 15 14 13 12 10 9 7 6 5 4 3 2 1 1 0 -1 -1 -2 -3 -4 -5 -5 -6 -7 -8 -9 -9 -10 -10 -10
14 12 11 11 11 11 11 11 12 13 13 14 15 17 18 19 18 18 17 16 15 14 12 11 10 8 6 5 4 3 2 1 1 -0 -1 -1 -2 -3 -4 -5 -6 -6 -7 -8 -9 -9 -9 -10 -10
13 12 10 11 12 11 11 11 13 15 14 12 12 15 18 19 18 18 17 16 15 14 12 11 9 8 6 5 4 3 2 1 1 -0 -1 -1 -2 -3 -4 -5 -6 -6 -7 -8 -8 -9 -9 -9 -9
11 12 11 10 9 10 11 13 13 14 14 13 14 17 19 19 19 18 17 16 15 13 12 10 9 7 6 4 3 2 2 1 0 -0 -1 -2 -2 -3 -4 -5 -5 -6 -7 -8 -8 -9 -9 -9 -9
11 11 10 11 11 9 8 13 14 12 12 13 15 18 19 19 18 18 17 16 14 13 12 10 9 7 6 4 3 2 2 1 0 -0 -1 -2 -2 -3 -4 -5 -5 -6 -7 -8 -8 -8 -9 -9 -9
Wind_Speed
4 6 4 4 6 6 3 3 6 5 3 3 5 8 8 6 4 5 5 9 15 13 9 5 8 9 10 11 12 13 14 14 16 17 17 18 19 19 20 21 22 22 23 24 25 25 26 26 27
4 4 5 5 5 3 3 4 6 5 8 8 6 7 6 3 3 8 6 10 17 14 9 5 8 9 9 10 11 12 13 14 15 16 17 18 18 19 20 21 21 22 23 23 24 24 25 26 27
2 3 5 5 5 6 7 5 7 5 6 5 5 5 5 7 7 8 7 15 17 13 9 6 8 8 9 9 10 11 12 13 14 16 17 17 18 19 19 21 21 22 22 23 23 24 25 26 26
4 5 5 6 3 2 4 6 8 8 4 6 6 5 3 2 8 8 11 18 16 13 9 6 8 8 8 8 9 10 11 12 14 15 16 17 18 18 19 20 21 21 22 23 23 24 25 25 26
4 5 6 4 2 3 2 7 8 7 6 4 6 6 2 1 6 11 13 17 14 12 9 6 7 7 7 7 8 9 10 12 13 15 16 17 18 18 19 20 20 21 22 23 23 24 25 25 26
5 5 5 3 2 2 3 6 7 6 6 6 8 8 5 4 9 11 13 15 17 14 10 6 7 6 6 6 7 8 9 11 12 14 15 17 18 18 18 20 20 21 22 23 23 24 25 26 26
4 5 4 8 6 5 7 6 9 8 7 9 10 9 4 6 8 10 12 15 16 15 12 9 8 6 5 5 6 7 8 10 11 13 14 16 17 18 18 20 21 22 22 23 24 25 25 26 26
5 6 5 6 7 7 8 6 5 8 6 7 10 10 8 10 10 10 9 10 11 13 13 11 9 7 5 4 5 6 7 8 10 11 13 14 16 17 18 20 21 22 22 23 23 24 25 26 26
4 5 5 9 9 8 9 6 3 3 7 5 4 6 8 15 13 11 7 6 7 8 10 12 10 7 5 4 4 5 5 6 8 9 10 11 14 16 17 19 20 20 20 21 22 23 24 24 24
5 4 7 5 5 8 9 8 9 6 5 4 1 1 9 18 17 15 11 11 10 9 7 12 11 9 5 3 2 3 3 4 6 6 8 10 12 14 15 17 18 19 18 19 20 22 21 21 20
5 5 3 1 2 8 8 8 8 11 8 10 10 9 16 16 16 16 14 12 11 10 9 11 13 10 7 4 2 1 2 2 3 4 6 8 10 12 14 15 16 17 16 16 17 18 18 18 18
5 2 2 1 1 7 10 9 7 10 10 8 12 18 20 19 20 19 16 12 10 10 10 10 14 12 8 5 3 3 2 1 1 2 4 6 7 9 10 11 13 14 14 14 14 15 16 17 17
4 2 2 3 4 6 8 7 6 9 7 4 13 18 20 21 18 14 12 12 11 12 11 9 15 13 10 7 5 4 3 2 1 1 2 3 4 4 6 8 10 12 12 12 13 14 15 14 15
4 3 2 3 4 2 5 5 5 10 7 11 16 19 19 20 18 14 12 14 15 14 12 9 13 14 11 8 6 5 4 3 3 3 2 1 1 2 4 6 8 11 12 12 13 14 13 12 13
5 4 3 2 0 0 2 7 10 7 10 12 15 17 18 17 17 16 15 14 15 14 13 11 13 14 12 9 7 6 5 4 4 5 4 4 3 3 4 6 8 10 12 13 13 13 11 11 12
4 3 3 5 5 3 5 10 9 9 12 14 14 14 16 17 17 15 14 13 14 14 14 12 13 13 12 10 8 6 5 5 5 6 6 6 5 5 6 6 8 11 12 11 10 7 5 6 7
1 2 5 4 7 6 7 11 7 7 13 14 15 15 16 15 16 15 14 15 16 17 16 14 10 11 12 11 9 6 5 5 6 6 8 8 7 7 7 8 10 11 10 9 9 6 5 7 8
5 6 6 7 6 7 8 15 13 7 13 14 14 14 16 19 21 15 15 15 16 16 15 14 12 11 12 10 6 4 3 5 6 7 9 9 9 8 8 8 10 10 7 6 6 6 6 6 8
4 5 7 6 5 8 12 18 18 9 12 14 14 15 18 22 17 13 14 14 15 15 15 15 13 11 8 5 4 3 3 3 4 8 9 10 9 9 9 8 9 8 5 5 6 5 7 6 6
4 5 5 4 4 7 8 15 16 10 11 14 17 19 20 18 13 14 14 16 18 19 18 17 16 14 11 7 4 3 3 3 5 7 8 9 9 9 8 8 8 8 5 6 7 6 4 6 6
3 4 4 3 3 4 6 11 9 5 6 9 11 14 15 19 19 17 18 19 19 20 21 19 17 15 12 9 5 3 2 1 2 3 4 8 9 9 9 10 9 9 6 5 7 7 6 7 6
5 2 0 1 2 5 2 6 9 6 7 9 14 14 16 18 18 18 19 19 22 22 18 17 17 15 13 11 8 8 6 5 5 4 4 7 9 9 9 10 10 9 8 6 7 6 6 7 8
4 1 1 1 0 4 3 4 10 4 8 12 13 16 19 18 18 19 21 22 21 18 17 16 16 15 13 12 12 9 8 6 4 4 5 5 7 9 10 11 10 10 9 8 8 7 8 6 7
3 4 4 5 4 4 6 7 9 7 9 10 10 13 17 17 16 17 15 15 15 14 15 15 16 16 14 14 12 11 11 9 7 6 6 5 4 6 10 11 11 11 10 9 9 8 9 8 8
4 4 3 4 2 7 4 6 11 11 11 11 11 12 14 14 14 14 14 16 17 18 18 17 18 16 15 14 13 12 11 10 10 8 7 6 5 4 6 10 10 10 12 13 12 8 8 8 9
5 7 6 4 5 6 5 8 10 10 9 10 10 10 9 11 12 14 16 17 18 19 20 19 20 17 16 15 14 12 11 8 7 9 7 7 6 6 9 11 11 12 13 13 11 7 8 8 9
5 6 7 5 3 6 8 9 11 7 7 8 9 9 11 12 12 13 13 15 17 19 21 21 20 17 16 16 13 12 11 10 9 8 7 6 6 7 10 10 10 12 12 12 10 8 9 9 10
3 5 5 4 3 6 8 7 7 9 10 11 10 12 14 12 11 11 12 14 16 17 17 16 18 18 14 15 13 12 11 10 9 8 8 8 7 8 8 8 8 9 10 11 8 9 10 10 11
6 5 6 4 4 5 6 9 8 10 11 12 15 14 14 14 14 14 13 13 12 12 14 16 16 15 14 15 13 11 10 10 9 8 9 8 7 7 7 7 8 9 9 8 9 10 10 11 12
8 8 9 6 7 6 5 11 10 11 11 11 13 12 11 12 11 11 11 10 12 15 15 17 17 16 15 14 13 12 10 9 9 9 9 7 8 7 7 7 8 9 9 9 9 11 12 12 14
Wind_Direction
97 107 78 59 57 57 114 153 146 123 85 64 81 93 101 108 145 157 152 137 125 110 98 80 89 78 69 61 54 48 44 41 37 34 30 28 27 26 24 22 19 17 15 13 11 9 7 6 4
98 108 57 62 85 109 215 167 148 155 145 134 95 89 88 89 95 123 153 141 123 116 111 103 97 84 73 63 56 49 44 41 37 33 29 27 26 24 23 20 18 15 14 12 10 8 7 5 3
68 93 84 74 101 177 201 176 155 129 130 118 82 66 108 146 144 160 163 139 123 119 116 115 104 90 77 65 57 49 44 40 37 32 29 27 25 23 22 19 16 14 12 11 9 8 7 5 4
69 56 56 71 99 310 194 171 153 129 100 79 105 92 83 141 169 164 143 134 126 127 126 122 110 97 83 68 57 50 43 38 35 32 29 27 23 21 21 17 14 13 11 10 9 9 7 6 5
66 83 67 66 40 359 99 146 141 129 136 111 119 129 140 340 137 133 138 138 137 143 139 129 115 101 86 71 58 50 43 37 34 31 29 26 21 19 20 15 13 12 11 11 10 9 8 7 5
60 72 91 155 146 94 164 170 140 126 133 129 130 143 189 171 141 145 145 145 146 149 144 122 116 101 85 69 59 50 43 37 34 30 28 25 20 17 18 13 11 12 10 10 9 8 8 6 4
98 95 138 162 158 182 200 174 155 150 158 177 152 142 190 208 183 153 146 147 149 149 142 127 110 95 77 60 57 50 44 37 34 28 26 24 19 16 16 11 10 10 9 9 7 7 6 5 3
116 103 110 161 171 206 182 155 166 158 175 150 143 153 196 203 183 149 143 145 146 147 146 139 126 109 90 66 53 48 42 35 32 25 23 24 20 17 15 9 9 9 8 7 5 4 3 2 359
87 85 169 195 188 199 177 147 118 130 129 132 182 195 196 160 157 145 147 152 156 153 153 150 138 126 112 98 67 51 43 34 35 28 24 28 27 22 16 8 8 7 6 5 2 0 360 358 354
66 148 198 198 205 180 176 157 155 141 156 172 154 34 136 151 164 167 172 175 174 172 172 162 151 144 132 120 97 67 65 51 44 40 39 37 32 23 16 10 8 5 3 1 358 356 354 351 346
72 156 169 340 174 153 149 151 157 147 200 210 194 172 155 164 174 182 184 181 180 177 175 171 161 157 153 157 164 134 104 69 47 44 43 39 33 24 17 10 5 1 357 354 350 348 344 339 336
86 45 108 3 100 141 155 159 184 195 214 210 180 164 166 176 185 190 190 185 176 176 179 174 167 164 168 176 192 192 180 158 61 57 51 44 35 21 11 2 354 349 345 340 339 335 331 329 329
104 129 17 31 86 130 142 176 214 233 230 156 150 163 177 186 192 196 192 182 176 181 179 175 170 170 174 184 201 200 205 210 200 140 86 57 42 13 354 343 339 335 333 329 327 326 323 322 323
121 98 56 33 52 98 156 219 252 247 162 146 162 179 188 193 194 194 190 185 184 183 180 175 172 174 175 183 200 213 220 223 208 194 177 153 29 330 318 317 321 321 323 322 320 317 314 313 314
95 81 358 294 277 196 99 268 237 227 150 168 183 191 196 201 199 200 195 187 186 183 177 175 175 174 175 185 202 213 223 223 215 214 207 209 238 269 282 292 302 310 318 319 319 315 315 318 319
94 64 298 240 198 171 158 258 255 182 168 189 197 200 205 209 209 206 196 187 184 179 178 180 177 173 176 184 197 210 222 223 225 226 223 226 242 260 268 278 290 304 311 314 312 307 312 309 307
6 278 268 258 195 172 194 249 271 175 186 201 204 207 211 214 218 212 200 190 184 181 179 181 173 171 176 182 190 201 216 223 233 238 236 238 245 257 264 273 286 299 303 306 312 324 304 307 309
232 230 253 253 208 178 218 255 266 201 208 215 211 211 215 218 220 210 203 193 186 183 181 179 175 173 171 170 174 185 212 230 245 249 247 243 247 259 267 276 285 294 293 294 295 298 297 294 300
222 234 261 263 188 187 234 258 270 222 216 229 223 218 221 226 222 208 201 191 184 183 183 182 179 177 166 160 168 184 215 229 248 254 247 243 249 261 269 277 285 288 279 278 289 295 299 297 299
237 268 273 281 194 204 265 274 271 227 212 221 222 222 224 228 222 212 201 193 192 190 189 187 186 182 179 175 166 171 180 211 233 242 244 244 252 263 271 272 274 280 279 285 292 296 291 298 314
264 245 254 280 345 261 305 301 285 257 223 232 228 225 226 225 224 215 206 201 198 197 194 192 189 185 182 171 154 152 151 234 241 234 236 245 258 267 272 277 277 276 268 272 282 285 281 297 300
256 215 205 317 350 296 233 294 289 272 265 248 238 231 232 229 225 218 211 206 205 203 195 191 186 184 181 172 172 172 187 205 218 216 227 252 262 266 272 277 277 273 269 264 277 293 279 285 299
218 155 115 59 143 309 245 218 282 285 267 258 243 233 235 231 224 220 214 211 208 199 192 189 184 184 181 179 180 181 197 208 217 226 242 250 259 262 269 275 274 269 267 267 271 277 275 271 279
116 59 54 49 65 291 225 189 274 237 221 242 244 233 232 231 225 224 217 206 201 191 189 186 185 187 184 184 184 187 196 204 214 228 238 245 246 257 264 271 268 266 266 267 269 267 268 268 270
96 82 358 328 329 256 230 210 250 245 224 219 226 232 231 225 220 218 209 202 197 191 191 189 189 191 188 188 191 194 197 199 210 220 228 235 242 246 252 263 262 263 265 268 269 263 266 267 268
182 152 176 237 252 286 285 238 254 257 250 235 238 243 241 229 219 217 212 204 199 194 191 191 193 193 189 192 196 196 195 198 209 214 217 225 232 241 252 256 258 261 266 273 271 266 267 269 266
187 201 179 163 268 272 271 277 295 262 261 237 236 244 246 238 227 221 212 203 198 195 195 194 193 193 193 195 194 196 197 199 207 213 217 224 231 248 252 252 255 261 265 267 267 266 267 269 270
201 148 113 154 241 270 284 272 254 271 251 243 240 240 246 245 240 230 216 207 201 198 195 193 194 195 192 192 195 200 200 202 205 209 219 227 234 246 252 254 256 261 264 266 263 266 268 269 273
170 188 182 181 191 201 269 270 230 240 241 233 235 235 239 240 236 231 221 209 198 189 190 194 195 194 193 194 195 195 196 199 202 211 222 227 234 241 244 249 255 261 264 263 263 266 271 271 276
187 196 166 185 234 209 230 268 258 248 260 246 246 246 246 244 240 231 216 196 192 195 196 197 198 198 198 194 192 197 195 195 204 216 223 225 235 240 244 251 259 264 268 264 264 271 278 274 278
Height
1563 1564 1565 1567 1570 1583 1588 1586 1586 1588 1589 1590 1590 1590 1591 1596 1599 1606 1604 1603 1606 1609 1610 1610 1610 1610 1609 1607 1606 1604 1602 1600 1598 1596 1594 1592 1590 1588 1585 1582 1579 1577 1574 1571 1568 1565 1563 1560 1557
1564 1565 1567 1567 1577 1592 1590 1585 1586 1586 1588 1590 1591 1591 1592 1595 1596 1598 1599 1602 1605 1608 1609 1609 1609 1608 1607 1606 1604 1603 1601 1599 1597 1595 1593 1591 1589 1587 1584 1581 1579 1576 1573 1570 1567 1565 1562 1559 1556
1565 1565 1567 1569 1580 1588 1586 1584 1585 1586 1588 1589 1591 1592 1593 1594 1595 1596 1598 1601 1604 1606 1607 1607 1607 1607 1606 1604 1603 1601 1600 1598 1596 1594 1592 1590 1588 1585 1583 1580 1577 1575 1572 1569 1566 1564 1560 1557 1554
1565 1566 1567 1575 1581 1582 1580 1582 1583 1585 1588 1588 1590 1593 1594 1595 1596 1596 1598 1601 1603 1605 1606 1606 1606 1605 1604 1603 1602 1600 1598 1597 1595 1593 1591 1589 1586 1584 1581 1578 1576 1573 1570 1567 1565 1562 1559 1555 1552
1564 1565 1573 1584 1583 1583 1582 1582 1583 1584 1586 1588 1589 1591 1593 1594 1595 1596 1597 1600 1602 1603 1604 1604 1604 1604 1603 1602 1600 1599 1597 1595 1594 1591 1589 1586 1584 1581 1579 1576 1574 1571 1568 1565 1562 1559 1556 1553 1549
1564 1565 1581 1589 1585 1584 1583 1582 1583 1584 1586 1587 1589 1590 1591 1593 1593 1595 1597 1599 1601 1602 1602 1602 1602 1602 1601 1600 1599 1597 1596 1594 1592 1589 1587 1584 1582 1579 1577 1574 1572 1569 1566 1563 1560 1557 1554 1550 1547
1564 1569 1578 1584 1587 1585 1583 1582 1582 1583 1584 1586 1586 1589 1590 1590 1592 1593 1595 1597 1599 1600 1600 1601 1601 1600 1600 1599 1597 1596 1594 1592 1590 1588 1585 1583 1580 1577 1575 1572 1570 1567 1564 1561 1558 1555 1552 1548 1545
1563 1568 1579 1584 1584 1582 1579 1580 1580 1582 1583 1584 1585 1585 1585 1586 1589 1591 1594 1595 1596 1597 1598 1599 1599 1598 1598 1597 1595 1594 1592 1590 1588 1586 1583 1581 1578 1575 1573 1570 1568 1565 1562 1559 1556 1553 1549 1546 1542
1563 1572 1579 1580 1579 1576 1576 1578 1579 1581 1581 1582 1581 1581 1582 1583 1585 1588 1590 1591 1593 1594 1595 1596 1596 1596 1596 1595 1593 1592 1590 1588 1586 1583 1581 1578 1576 1573 1571 1568 1565 1562 1559 1556 1553 1549 1546 1543 1539
1563 1573 1571 1570 1570 1570 1572 1573 1576 1578 1579 1579 1578 1578 1579 1580 1581 1583 1584 1586 1588 1590 1592 1593 1594 1594 1593 1592 1591 1589 1587 1585 1583 1581 1578 1576 1573 1570 1568 1565 1562 1559 1556 1552 1549 1545 1542 1538 1535
1565 1569 1568 1568 1567 1568 1570 1573 1574 1575 1577 1573 1572 1574 1575 1577 1578 1579 1581 1583 1585 1587 1589 1590 1591 1591 1590 1589 1588 1586 1585 1583 1580 1578 1575 1573 1570 1568 1565 1561 1558 1555 1552 1548 1544 1541 1537 1533 1530
1567 1569 1568 1568 1567 1568 1570 1572 1573 1571 1568 1569 1570 1572 1572 1573 1574 1575 1577 1579 1581 1583 1585 1587 1588 1588 1587 1586 1585 1583 1582 1580 1577 1575 1572 1570 1567 1564 1561 1557 1554 1550 1547 1543 1539 1536 1532 1529 1525
1568 1570 1569 1569 1568 1569 1570 1570 1570 1566 1567 1567 1567 1568 1569 1570 1571 1573 1575 1577 1578 1579 1581 1583 1584 1585 1584 1583 1582 1580 1579 1576 1574 1571 1569 1566 1563 1560 1557 1553 1550 1546 1542 1538 1535 1531 1528 1524 1521
1569 1570 1570 1570 1570 1570 1571 1570 1569 1561 1563 1564 1564 1564 1565 1566 1568 1570 1571 1571 1572 1574 1577 1579 1580 1581 1580 1580 1578 1577 1575 1573 1570 1568 1565 1562 1559 1556 1552 1549 1545 1542 1538 1534 1530 1527 1523 1520 1516
1570 1572 1572 1571 1570 1571 1572 1571 1563 1557 1559 1559 1560 1560 1561 1562 1564 1564 1565 1566 1568 1571 1573 1575 1576 1577 1576 1576 1574 1573 1571 1569 1567 1564 1561 1558 1555 1552 1548 1545 1541 1538 1534 1530 1527 1523 1519 1516 1512
1571 1574 1575 1569 1570 1570 1575 1570 1554 1554 1555 1555 1555 1556 1557 1558 1559 1561 1562 1563 1565 1567 1568 1570 1571 1572 1572 1571 1570 1569 1567 1565 1563 1560 1557 1554 1551 1548 1544 1541 1537 1534 1530 1526 1522 1519 1515 1511 1507
1574 1577 1573 1568 1567 1569 1572 1565 1551 1550 1551 1550 1551 1551 1552 1553 1555 1556 1558 1559 1560 1562 1563 1565 1566 1567 1567 1567 1566 1564 1563 1561 1558 1555 1553 1550 1547 1543 1540 1537 1533 1529 1526 1522 1519 1515 1511 1507 1502
1572 1574 1570 1567 1564 1568 1569 1560 1548 1549 1548 1546 1546 1547 1547 1547 1547 1550 1553 1554 1555 1557 1558 1559 1560 1561 1562 1562 1561 1560 1558 1556 1554 1551 1549 1546 1543 1539 1536 1533 1529 1525 1521 1518 1514 1511 1507 1503 1499
1564 1565 1566 1561 1559 1564 1563 1554 1543 1543 1544 1542 1541 1541 1541 1540 1543 1546 1548 1549 1550 1550 1551 1552 1553 1554 1556 1556 1556 1554 1553 1551 1549 1546 1544 1541 1538 1535 1532 1528 1525 1521 1517 1514 1510 1506 1502 1499 1495
1562 1563 1563 1560 1558 1561 1560 1551 1538 1534 1534 1532 1533 1533 1533 1535 1537 1539 1541 1542 1542 1542 1543 1544 1545 1547 1549 1550 1550 1549 1548 1546 1544 1542 1539 1537 1534 1531 1527 1524 1520 1517 1513 1509 1506 1502 1498 1494 1492
1560 1561 1561 1560 1559 1559 1560 1550 1535 1528 1528 1528 1527 1527 1527 1528 1529 1531 1533 1533 1534 1534 1535 1536 1538 1540 1543 1544 1544 1543 1542 1541 1539 1537 1535 1532 1530 1527 1523 1519 1516 1512 1509 1505 1501 1498 1494 1490 1487
1562 1558 1558 1559 1563 1567 1562 1566 1538 1528 1526 1523 1520 1520 1519 1521 1522 1524 1525 1525 1525 1526 1528 1530 1532 1533 1535 1537 1537 1537 1536 1535 1534 1532 1530 1528 1525 1522 1518 1515 1511 1508 1504 1500 1497 1494 1491 1486 1482
1557 1557 1558 1560 1563 1567 1563 1566 1542 1529 1526 1517 1512 1512 1512 1513 1515 1516 1516 1517 1519 1521 1521 1523 1524 1526 1528 1529 1530 1530 1530 1529 1528 1526 1525 1523 1520 1517 1514 1510 1507 1503 1499 1496 1492 1489 1486 1482 1478
1556 1559 1561 1567 1570 1572 1559 1564 1547 1529 1518 1510 1505 1505 1505 1507 1508 1509 1511 1512 1513 1514 1514 1515 1517 1518 1520 1522 1523 1524 1524 1523 1522 1520 1519 1517 1515 1512 1509 1505 1502 1498 1494 1491 1487 1483 1480 1476 1473
1558 1567 1573 1569 1575 1567 1551 1554 1535 1510 1505 1501 1499 1499 1500 1502 1503 1503 1504 1504 1504 1505 1506 1507 1508 1510 1512 1514 1516 1517 1517 1516 1515 1514 1513 1511 1509 1506 1503 1500 1496 1493 1489 1485 1481 1477 1474 1470 1467
1559 1563 1573 1573 1573 1564 1548 1546 1519 1501 1497 1496 1496 1496 1496 1497 1497 1497 1497 1497 1497 1498 1498 1499 1500 1502 1504 1506 1508 1510 1510 1510 1509 1508 1507 1505 1503 1500 1497 1494 1491 1487 1483 1480 1476 1472 1468 1464 1460
1555 1560 1560 1569 1568 1569 1554 1537 1515 1496 1494 1492 1492 1492 1491 1491 1491 1491 1491 1491 1491 1491 1491 1492 1493 1495 1497 1499 1501 1502 1503 1503 1502 1502 1500 1499 1497 1495 1492 1488 1485 1481 1478 1474 1470 1465 1462 1458 1454
1552 1555 1565 1568 1570 1569 1555 1541 1522 1498 1494 1491 1489 1487 1486 1486 1486 1485 1485 1485 1484 1485 1485 1486 1486 1488 1490 1492 1494 1495 1496 1496 1496 1495 1494 1493 1491 1489 1486 1482 1479 1475 1472 1468 1464 1460 1455 1451 1447
1553 1555 1556 1562 1566 1569 1561 1532 1501 1493 1487 1486 1482 1481 1480 1481 1480 1479 1479 1479 1479 1479 1478 1478 1479 1481 1482 1484 1486 1488 1489 1489 1489 1489 1488 1487 1485 1483 1480 1477 1473 1469 1466 1462 1458 1453 1450 1445 1441
1545 1546 1552 1558 1556 1559 1561 1525 1488 1486 1482 1481 1479 1477 1477 1477 1475 1474 1474 1473 1472 1471 1471 1471 1471 1473 1475 1477 1479 1480 1482 1482 1482 1482 1482 1481 1479 1477 1474 1471 1467 1464 1460 1456 1452 1447 1444 1439 1435